Wind_Speed
11 11 12 12 13 13 13 14 14 14 14 14 15 15 15 15 16 16 16 17 17 17 17 17 18 18 18 18 18 18 19 19 19 19 19 19 20 20 20 20 20 20 21
11 11 11 12 12 13 13 13 13 14 14 14 15 15 15 16 16 16 17 17 18 18 18 18 18 18 18 18 19 19 19 20 20 20 21 21 21 21 21 22 22 22 22
11 11 12 12 12 13 13 13 13 14 14 14 15 15 15 16 16 17 17 17 17 18 18 18 18 18 18 18 19 19 20 20 20 21 21 22 22 22 23 23 23 24 24
11 11 11 12 13 13 13 14 14 15 15 15 16 16 16 17 17 17 17 17 17 17 17 17 17 18 18 18 19 19 20 20 21 21 22 23 23 24 24 25 25 25 26
12 12 12 13 13 14 15 15 15 15 16 16 16 16 16 17 17 17 17 17 17 17 17 17 18 18 18 18 19 19 19 20 20 21 21 22 23 24 24 25 26 26 27
13 13 14 14 14 15 15 16 16 16 17 17 16 16 16 17 17 17 18 18 18 18 18 18 18 18 18 18 19 19 19 20 20 21 21 22 22 23 24 25 26 26 27
14 14 15 15 15 15 16 16 16 17 17 17 17 17 18 18 18 18 18 18 18 18 18 18 18 18 19 19 19 19 20 20 21 21 21 22 22 23 24 25 26 26 27
15 15 16 16 16 16 16 17 17 17 18 18 19 19 19 20 20 19 19 19 19 19 19 19 19 19 19 19 20 20 20 20 20 21 21 22 22 23 24 25 25 26 27
16 16 16 17 17 17 17 18 18 19 19 20 20 20 21 21 21 21 21 20 20 21 21 21 21 20 20 20 20 20 20 21 21 21 21 22 22 23 23 24 25 26 27
16 16 16 17 18 18 19 19 20 20 20 21 22 22 22 22 22 22 22 22 22 22 23 23 23 23 23 23 23 23 23 23 23 23 23 23 24 24 24 25 25 26 27
16 16 17 18 18 19 20 20 21 21 21 22 23 23 24 24 24 24 25 25 25 25 25 25 26 26 26 26 26 26 26 26 26 26 26 26 26 26 27 27 27 28 28
17 17 18 18 19 20 21 21 22 22 22 23 24 25 25 26 27 27 27 27 28 28 28 29 29 29 29 30 30 30 30 30 30 30 30 30 30 30 30 30 31 31 31
17 18 18 19 20 20 21 22 23 24 24 25 26 26 27 28 29 29 30 30 31 31 32 32 33 33 33 34 34 34 34 34 35 35 35 35 34 34 34 34 34 35 35
18 18 19 20 20 21 22 23 24 25 26 27 27 28 29 30 31 32 32 33 34 34 35 35 36 36 37 37 38 38 38 39 39 39 39 39 39 39 38 38 38 39 39
19 19 19 20 21 22 23 24 25 26 27 28 28 29 30 31 32 33 34 35 36 37 37 38 38 39 40 40 41 42 42 43 43 43 43 43 43 43 43 43 43 42 42
19 19 20 20 21 22 23 24 25 26 27 28 29 30 31 32 33 34 35 36 37 38 39 40 40 41 42 43 44 45 45 46 46 46 46 47 47 47 47 47 47 47 47
19 20 20 21 22 23 24 25 26 26 27 28 29 30 31 32 33 35 36 37 38 39 40 41 42 43 44 45 46 47 48 49 49 49 50 50 50 50 50 51 51 51 51
20 20 21 22 22 23 24 25 25 26 27 28 29 30 32 33 34 35 36 37 39 40 41 42 43 44 45 46 48 49 50 50 51 52 52 52 52 53 53 54 54 54 54
20 20 21 22 22 23 24 24 25 27 28 29 30 32 33 34 35 36 37 38 40 41 42 43 44 46 47 48 49 51 51 52 53 54 54 55 55 56 56 57 58 58 58
20 21 21 22 23 24 24 25 26 27 29 30 31 33 34 35 36 37 38 40 41 43 44 45 47 48 49 50 52 53 54 55 55 56 57 57 58 58 59 60 60 60 60
21 21 22 23 24 24 25 26 27 28 29 30 32 33 35 36 38 39 40 42 43 44 46 48 49 50 52 53 55 55 56 57 57 58 59 60 61 61 62 63 63 63 63
22 23 23 24 24 25 26 27 28 29 30 32 33 35 37 38 40 41 43 44 46 47 48 50 52 53 54 56 58 59 59 59 60 60 61 62 63 64 64 65 66 66 66
24 24 24 25 25 26 27 28 30 31 33 35 37 38 40 41 43 44 46 47 49 50 52 54 56 57 58 60 61 63 64 64 64 64 64 65 67 68 68 69 69 70 70
25 26 26 27 28 29 30 31 32 34 35 37 38 40 42 44 45 47 49 51 53 54 56 58 60 61 63 64 66 68 70 71 72 71 70 70 70 72 72 73 73 73 73
27 28 28 29 30 31 32 33 35 36 38 39 41 43 45 47 49 51 53 55 57 59 60 62 64 67 68 70 72 74 75 76 78 79 78 77 77 76 76 77 77 78 78
29 30 31 31 32 33 34 36 37 39 41 43 45 46 49 51 53 56 58 60 62 64 66 68 70 72 74 76 78 79 81 81 82 84 84 84 84 83 82 81 81 81 81
Wind_Direction
258 257 257 257 258 258 257 256 254 253 253 253 255 256 257 256 255 254 254 254 255 255 256 256 255 254 253 253 253 254 254 255 255 255 255 255 255 255 254 254 254 254 253
261 262 262 261 259 258 257 256 256 255 254 255 256 258 258 258 257 257 257 256 256 256 257 257 256 256 255 255 255 255 255 256 256 257 257 257 257 256 257 257 257 256 256
264 266 265 263 261 259 258 258 257 257 258 259 260 261 261 261 260 260 260 259 258 257 256 256 256 256 256 256 256 257 257 257 257 258 258 258 258 258 258 258 258 258 258
267 266 266 264 263 261 261 261 260 260 261 263 263 264 264 263 262 262 261 261 260 258 256 255 255 256 256 257 257 258 258 258 258 259 260 260 260 260 260 260 260 260 260
270 269 268 268 266 264 263 263 263 263 264 265 265 265 265 264 263 263 263 262 261 260 259 257 257 257 257 257 258 258 259 259 260 260 260 261 261 261 262 262 262 262 262
271 271 271 270 268 266 265 264 264 264 264 265 265 265 265 265 265 265 264 263 262 261 260 259 259 259 259 259 259 260 260 260 261 262 262 262 262 263 263 263 263 263 263
272 272 272 271 269 267 266 264 263 263 263 263 264 264 265 265 265 264 264 263 262 262 261 261 261 260 261 261 262 262 262 263 263 264 264 264 265 265 265 265 264 264 264
273 272 272 271 270 268 266 265 264 263 262 263 264 265 265 265 265 264 263 263 262 262 262 262 262 262 262 263 263 264 264 265 266 266 266 267 267 267 267 266 266 266 266
275 274 272 270 269 267 266 266 265 264 263 263 264 265 265 265 265 264 263 263 262 262 263 263 262 262 263 263 263 264 265 266 267 268 269 269 269 269 269 269 269 269 269
279 277 274 271 269 267 267 266 266 266 266 265 265 265 265 265 265 264 264 263 263 263 263 264 264 264 264 264 264 265 265 266 267 268 269 270 270 271 271 271 271 271 271
280 278 276 274 272 271 269 269 268 268 267 267 266 266 266 266 266 266 265 265 265 264 265 265 265 266 266 266 266 266 266 267 267 268 269 270 270 271 271 272 272 272 272
282 280 277 275 274 273 271 271 270 270 269 269 268 267 267 267 267 267 267 267 266 266 267 267 267 267 267 267 268 268 268 268 268 269 269 270 270 270 271 271 272 272 272
283 281 279 277 275 274 272 272 271 271 271 270 270 269 269 269 269 269 269 269 268 268 268 268 268 268 268 268 269 269 269 269 269 269 270 270 270 270 271 271 271 272 272
284 282 281 278 276 275 273 272 272 272 272 272 272 272 271 271 270 271 270 270 270 270 270 270 270 270 269 269 269 269 269 269 269 270 270 270 270 270 271 271 271 271 272
287 285 283 280 278 277 276 275 274 274 274 274 274 274 274 273 273 273 273 272 272 271 271 271 271 271 271 271 271 271 271 270 270 270 270 270 270 270 271 271 271 271 271
290 288 285 282 281 280 278 277 276 276 275 275 275 275 275 275 275 275 274 274 274 273 273 273 273 272 272 272 272 272 271 271 271 271 270 270 270 270 270 270 270 270 271
293 291 288 286 284 283 282 280 279 279 278 278 277 277 277 277 277 277 277 277 276 276 276 275 274 273 273 273 272 272 272 272 271 271 271 270 270 270 270 270 270 270 270
294 293 292 290 288 287 286 284 283 282 282 281 281 280 280 280 280 280 280 280 279 279 278 278 277 276 275 274 273 273 273 272 272 271 271 270 270 270 269 269 269 269 269
296 295 294 292 291 289 288 286 286 285 285 285 284 284 284 283 283 283 282 281 281 280 280 279 278 277 276 275 274 274 273 273 272 272 271 270 270 269 269 268 268 268 268
297 296 295 294 293 292 290 289 289 288 288 288 288 288 287 287 286 286 285 284 283 282 282 281 280 279 278 277 276 275 274 273 273 272 272 271 270 270 269 268 268 268 268
297 297 296 294 293 293 292 292 291 291 291 291 291 291 290 290 289 288 287 286 286 285 284 283 283 281 280 279 278 277 276 275 274 273 272 272 271 270 269 269 269 269 268
297 297 296 295 294 294 293 293 294 294 293 293 293 293 293 292 291 291 290 289 288 287 286 286 284 283 283 282 281 279 278 276 275 274 273 272 272 271 270 269 269 268 268
297 297 296 296 295 295 295 295 295 295 295 294 294 294 294 293 293 292 291 290 290 289 288 287 286 285 284 283 283 282 281 279 276 275 273 273 272 271 271 270 269 268 267
297 297 297 297 296 296 296 296 296 296 296 296 295 295 295 294 294 293 292 292 291 290 289 288 287 286 286 285 284 283 282 281 279 277 275 273 271 271 270 270 269 268 268
296 297 297 296 296 296 296 296 296 296 295 295 295 295 295 294 294 293 293 292 291 291 290 289 288 287 286 285 284 283 282 281 280 279 277 275 273 271 269 269 268 268 267
295 296 296 296 295 295 296 297 297 297 297 297 297 297 296 296 295 294 294 293 292 291 291 290 289 288 287 286 285 283 282 281 280 279 278 276 275 273 271 269 268 267 267
Height
5875 5875 5875 5875 5875 5875 5875 5875 5875 5875 5875 5875 5876 5876 5876 5876 5876 5876 5875 5875 5875 5875 5874 5874 5874 5874 5874 5874 5874 5874 5874 5874 5874 5874 5874 5874 5874 5874 5874 5874 5875 5875 5875
5874 5873 5873 5873 5873 5873 5873 5873 5873 5873 5873 5874 5874 5874 5874 5874 5873 5873 5873 5873 5872 5872 5872 5871 5871 5871 5871 5871 5871 5871 5871 5871 5871 5871 5871 5871 5871 5871 5871 5872 5872 5872 5872
5872 5872 5871 5871 5871 5871 5871 5871 5871 5871 5871 5871 5871 5871 5871 5871 5871 5871 5870 5870 5870 5870 5869 5869 5869 5868 5868 5868 5868 5868 5868 5868 5868 5868 5868 5868 5868 5868 5868 5868 5868 5868 5869
5870 5870 5870 5870 5869 5869 5869 5869 5869 5869 5869 5869 5869 5869 5869 5868 5868 5868 5868 5867 5867 5867 5866 5866 5866 5866 5865 5865 5865 5865 5865 5865 5865 5865 5865 5864 5864 5864 5865 5865 5865 5865 5865
5868 5868 5868 5868 5867 5867 5867 5867 5867 5867 5867 5866 5866 5866 5866 5865 5865 5865 5865 5864 5864 5863 5863 5863 5863 5863 5862 5862 5862 5862 5861 5861 5861 5861 5861 5861 5861 5861 5861 5861 5861 5861 5861
5866 5866 5866 5865 5865 5865 5864 5864 5864 5864 5864 5864 5863 5863 5863 5862 5862 5862 5861 5861 5861 5860 5860 5860 5860 5859 5859 5859 5858 5858 5858 5858 5858 5858 5857 5857 5857 5857 5857 5857 5856 5856 5857
5864 5864 5863 5863 5862 5862 5862 5861 5861 5861 5861 5861 5860 5860 5860 5859 5859 5859 5858 5858 5857 5857 5857 5856 5856 5856 5855 5855 5855 5855 5855 5854 5854 5854 5853 5853 5853 5853 5853 5853 5852 5852 5852
5862 5861 5861 5860 5859 5859 5859 5858 5858 5858 5858 5857 5857 5857 5856 5856 5856 5855 5855 5854 5854 5853 5853 5853 5852 5852 5852 5852 5851 5851 5851 5850 5850 5850 5849 5849 5849 5849 5848 5848 5848 5848 5847
5859 5858 5857 5857 5856 5856 5855 5855 5855 5854 5854 5854 5854 5853 5853 5852 5852 5852 5851 5851 5850 5850 5849 5849 5848 5848 5848 5848 5847 5847 5846 5846 5846 5845 5845 5845 5844 5844 5844 5843 5843 5843 5842
5856 5855 5854 5853 5853 5852 5852 5851 5851 5851 5850 5850 5850 5849 5849 5849 5848 5848 5847 5847 5846 5846 5845 5845 5844 5844 5844 5843 5843 5843 5842 5842 5841 5841 5840 5840 5840 5839 5839 5838 5838 5837 5837
5853 5852 5851 5850 5849 5849 5848 5848 5847 5847 5846 5846 5845 5845 5845 5844 5844 5843 5843 5842 5842 5841 5840 5840 5839 5839 5839 5838 5838 5837 5837 5837 5836 5836 5835 5835 5834 5834 5833 5833 5833 5832 5832
5849 5848 5847 5846 5845 5845 5844 5843 5843 5842 5842 5841 5841 5840 5840 5839 5839 5838 5838 5837 5836 5836 5835 5835 5834 5833 5833 5832 5832 5831 5831 5830 5830 5830 5829 5829 5828 5828 5827 5827 5826 5826 5825
5846 5844 5843 5842 5841 5841 5840 5839 5838 5838 5837 5836 5836 5835 5834 5834 5833 5832 5832 5831 5830 5830 5829 5828 5828 5827 5826 5826 5825 5824 5824 5823 5823 5823 5822 5822 5821 5821 5820 5820 5819 5819 5818
5841 5841 5839 5838 5837 5836 5835 5834 5833 5833 5832 5831 5830 5829 5829 5828 5827 5826 5825 5825 5824 5823 5822 5821 5821 5820 5819 5818 5817 5816 5816 5815 5815 5814 5814 5813 5813 5812 5812 5811 5811 5810 5810
5837 5836 5835 5834 5833 5832 5831 5829 5828 5827 5826 5825 5824 5823 5822 5821 5820 5819 5818 5817 5816 5815 5814 5813 5813 5812 5811 5810 5809 5808 5807 5806 5805 5805 5805 5804 5804 5803 5802 5802 5801 5801 5800
5833 5832 5830 5829 5828 5827 5825 5824 5823 5822 5820 5819 5818 5817 5816 5814 5813 5812 5811 5809 5808 5807 5806 5805 5804 5803 5801 5800 5799 5798 5797 5796 5795 5795 5794 5794 5793 5792 5792 5791 5790 5790 5789
5828 5827 5826 5824 5823 5822 5820 5819 5817 5816 5814 5813 5812 5810 5809 5807 5806 5804 5803 5801 5800 5798 5797 5796 5794 5793 5791 5790 5789 5787 5786 5785 5784 5783 5783 5782 5782 5781 5780 5779 5778 5778 5777
5824 5823 5821 5819 5818 5816 5815 5813 5812 5810 5808 5807 5805 5803 5802 5800 5798 5797 5795 5793 5791 5789 5788 5786 5784 5783 5781 5779 5778 5776 5774 5773 5772 5771 5770 5770 5769 5768 5767 5766 5765 5764 5764
5820 5818 5816 5815 5813 5811 5809 5808 5806 5804 5802 5800 5798 5796 5795 5793 5791 5789 5787 5784 5782 5780 5778 5776 5774 5771 5770 5768 5766 5764 5762 5761 5760 5758 5757 5756 5755 5754 5753 5752 5751 5750 5750
5815 5814 5812 5810 5808 5806 5804 5802 5800 5798 5796 5794 5791 5789 5787 5785 5782 5780 5778 5775 5772 5770 5768 5765 5762 5760 5758 5755 5753 5751 5749 5747 5746 5745 5743 5742 5740 5739 5738 5736 5735 5735 5735
5811 5809 5807 5805 5803 5800 5798 5796 5794 5792 5789 5787 5784 5782 5779 5776 5774 5771 5768 5765 5762 5760 5757 5754 5750 5748 5745 5742 5739 5737 5736 5734 5732 5731 5728 5726 5725 5723 5722 5720 5720 5719 5719
5806 5804 5802 5800 5797 5795 5792 5790 5787 5785 5782 5780 5777 5774 5771 5767 5764 5761 5758 5755 5751 5748 5745 5741 5737 5734 5731 5727 5724 5721 5720 5720 5718 5715 5713 5710 5708 5706 5705 5704 5702 5702 5701
5801 5799 5796 5794 5791 5789 5786 5784 5781 5778 5775 5772 5768 5765 5761 5758 5754 5750 5747 5743 5739 5736 5732 5728 5723 5720 5716 5712 5708 5704 5701 5701 5699 5699 5697 5694 5691 5688 5687 5685 5684 5683 5682
5795 5793 5790 5788 5785 5782 5780 5777 5773 5770 5767 5763 5759 5756 5751 5747 5743 5739 5735 5731 5726 5722 5718 5713 5709 5704 5700 5696 5691 5687 5683 5679 5676 5677 5678 5676 5673 5669 5667 5665 5664 5663 5662
5789 5787 5784 5781 5778 5775 5772 5769 5765 5762 5758 5754 5750 5746 5741 5737 5732 5727 5722 5717 5712 5708 5703 5698 5692 5687 5682 5678 5672 5667 5663 5659 5653 5651 5653 5652 5650 5649 5647 5645 5643 5642 5641
5783 5780 5777 5774 5771 5767 5764 5760 5756 5752 5748 5744 5740 5735 5730 5725 5720 5714 5708 5703 5697 5692 5686 5680 5674 5668 5662 5657 5651 5645 5640 5636 5632 5626 5625 5625 5623 5623 5622 5622 5621 5620 5618